Hartford, CT

9:17 PM EDT on August 29, 2016 (GMT -0400)
Hartford-brainard

Weather History for KHFD - December, 2011

Change the Weather History Date:

Tuesday, December 20, 2011

  Actual Average Record
Temperature  
Mean Temperature 40 °F -  
Max Temperature 46 °F 35 °F 60 °F (1923)
Min Temperature 33 °F 20 °F -10 °F (1942)
Degree Days  
Heating Degree Days 26    
Moisture  
Dew Point 24 °F    
Average Humidity 53    
Maximum Humidity 72    
Minimum Humidity 38    
Precipitation  
Precipitation 0.00 in - - ()
Sea Level Pressure  
Sea Level Pressure 30.12 in    
Wind  
Wind Speed 5 mph (NW)    
Max Wind Speed 16 mph    
Max Gust Speed 22 mph    
Visibility 10 miles    
Events      
Averages and records for this station are not official NWS values.
T = Trace of Precipitation, MM = Missing Value Source: NWS Daily Summary

Daily Weather History Graph

Daily Weather History Graph

Search for Another Location

Airport or City:

Trip Planner

Search our weather history database for the weather conditions in past years. The results will help you decide how hot, cold, wet, or windy it might be!

Date:

Astronomy

Dec. 20, 2011 Rise Set
Actual Time 7:13 AM EST 4:22 PM EST
Civil Twilight 6:42 AM EST 4:54 PM EST
Nautical Twilight 6:07 AM EST 5:29 PM EST
Astronomical Twilight 5:33 AM EST 6:03 PM EST
Moon 2:29 AM EST (12/20) 12:58 PM EST (12/20)
Length of Visible Light 10h 12m
Length of Day
9h 08m
Waning Crescent, 21% of the Moon is Illuminated
Dec 20
Waning Crescent
Dec 24
New
Jan 1
First Quarter
Jan 9
Full
Jan 16
Last Quarter

Hourly Weather History & Observations

Time (EST) Temp. Windchill Dew Point Humidity Pressure Visibility Wind Dir Wind Speed Gust Speed Precip Events Conditions
12:53 AM 43.0 °F - 28.9 °F 58% 29.91 in 10.0 mi Calm Calm - N/A   Mostly Cloudy
1:53 AM 44.1 °F 42.5 °F 30.9 °F 60% 29.93 in 10.0 mi South 3.5 mph - N/A   Overcast
2:53 AM 46.9 °F - 33.1 °F 59% 29.95 in 10.0 mi West 6.9 mph - N/A   Overcast
3:53 AM 45.0 °F 42.6 °F 34.0 °F 65% 29.97 in 10.0 mi NW 4.6 mph - N/A   Overcast
4:53 AM 44.1 °F 39.0 °F 30.9 °F 60% 30.00 in 10.0 mi WNW 9.2 mph - N/A   Overcast
5:53 AM 44.1 °F 38.1 °F 30.0 °F 58% 30.03 in 10.0 mi NW 11.5 mph 17.3 mph N/A   Clear
6:53 AM 42.8 °F 35.1 °F 24.8 °F 49% 30.07 in 10.0 mi NW 16.1 mph 21.9 mph N/A   Clear
7:53 AM 42.1 °F 34.2 °F 21.9 °F 45% 30.11 in 10.0 mi NW 16.1 mph 20.7 mph N/A   Clear
8:53 AM 41.0 °F 34.7 °F 21.9 °F 47% 30.15 in 10.0 mi NW 10.4 mph - N/A   Clear
9:53 AM 41.0 °F 35.2 °F 24.1 °F 51% 30.17 in 10.0 mi WNW 9.2 mph - N/A   Clear
10:53 AM 41.0 °F 34.3 °F 21.0 °F 45% 30.17 in 10.0 mi NNW 11.5 mph - N/A   Clear
11:53 AM 41.0 °F 35.8 °F 19.0 °F 41% 30.15 in 10.0 mi North 8.1 mph - N/A   Clear
12:53 PM 42.1 °F 39.2 °F 19.9 °F 41% 30.14 in 10.0 mi North 4.6 mph - N/A   Clear
1:53 PM 42.1 °F 40.2 °F 18.0 °F 38% 30.14 in 10.0 mi NNW 3.5 mph - N/A   Clear
2:53 PM 39.9 °F - 19.0 °F 43% 30.16 in 10.0 mi Calm Calm - N/A   Clear
3:53 PM 39.0 °F 36.8 °F 17.1 °F 41% 30.16 in 10.0 mi WSW 3.5 mph - N/A   Clear
4:53 PM 37.9 °F - 16.0 °F 41% 30.18 in 10.0 mi Calm Calm - N/A   Clear
5:53 PM 37.0 °F - 19.0 °F 48% 30.20 in 10.0 mi Calm Calm - N/A   Clear
6:53 PM 34.0 °F - 19.0 °F 54% 30.20 in 10.0 mi Calm Calm - N/A   Clear
7:53 PM 34.0 °F - 21.0 °F 59% 30.21 in 10.0 mi Calm Calm - N/A   Clear
8:53 PM 33.1 °F - 25.0 °F 72% 30.21 in 10.0 mi Calm Calm - N/A   Overcast
9:53 PM 34.0 °F - 24.1 °F 67% 30.20 in 10.0 mi Calm Calm - N/A   Overcast
10:53 PM 34.0 °F - 25.0 °F 70% 30.21 in 10.0 mi Calm Calm - N/A   Overcast
11:53 PM 35.1 °F - 23.0 °F 61% 30.19 in 10.0 mi Calm Calm - N/A   Overcast